Погода в Усть-Ербе

Россия / Республика Хакасия     54°26′45″N   91°09′47″E
темп.,
°C
ветер,
м/с
пор.,
м/с
влажн.,
%
обл.,
%
осадки,
мм/ч
давл.,
гПа
погр.,
м
4 декабря, сб
сб401:00−8вюв2390100 0.0 101674
04:00−11юв2294100 0.0 101921
07:00−11в229565 0.0 102221
10:00−11вюв119547 0.0 102427
13:00−5ююз3983100 0.0 1024319
16:00−8ююв2293100 0.0 102423
19:00−9ю1289100 0.0 102517
22:00−5з4878100 0.0 1027204
5 декабря, вс
вс501:00−11зсз118841 0.0 103110
04:00−14всв119423 0.0 103310
07:00−14в229478 0.0 103418
10:00−13вюв2294100 0.0 103330
13:00−8вюв2390100 0.0 103099
16:00−7в2393100 0.0 102858
19:00−7вюв229499 0.0 102641
22:00−9вюв2296100 0.0 102626
6 декабря, пн
пн601:00−9вюв2296100 0.0 102540
04:00−10вюв229680 0.0 102538
07:00−12вюв2296100 0.0 102430
10:00−10вюв2290100 0.0 102463
13:00−8вюв238592 0.0 1023137
16:00−8вюв2386100 0.0 1022129
19:00−7вюв2388100 0.1 1022131
22:00−7вюв2388100 0.0 1022114
7 декабря, вт
вт701:00−7вюв3492100 0.0 1020129
04:00−6юв3496100 0.1 1019144
07:00−6вюв3495100 0.1 1019108
10:00−6юв2392100 0.0 101976
13:00−5юв2389100 0.0 1019106
16:00−5юв2290100 0.0 101944
19:00−5ююз2391100 0.0 102048
22:00−5зсз4983100 0.1 1023343
8 декабря, ср
ср801:00−9сз4107598 0.1 1027231
04:00−14ссз34854 0.0 103050
07:00−17с22935 0.0 103314
10:00−18св11956 0.0 103521
13:00−14юв11905 0.0 103574
16:00−17в11977 0.0 103517
19:00−19ссв1198100 0.0 103617
22:00−16ссз0093100 0.0 103726